Content
SEND FEEDBACK

Daily
Averages
Monthly
Summary
United States of America

UPI, GUAM


Home > North America > United States > Guam
Elevation: 53 feet     Latitude: 13 34N     Longitude: 144 55E

WEATHER
 
SELECT A DAY
Number of Records: 215,809;   Date Range: 1/1/95 - 12/27/14
 
SHARE

PRINT THIS DATA

[ ← Previous Day ]
WEATHER ALMANAC - AUGUST 15, 2013
[ Next Day → ]
[ °C ]   °F
Weather ElementAverageHighLow
Temperature79.4 °F88 °F (12:54 pm)75 °F (10:54 pm)
Dewpoint75.1 °F77 °F (4:54 pm)73 °F (10:54 pm)
Humidity87.1 %100 % (8:54 pm)67 % (9:54 am)
Barometer29.84 in29.91 in (8:46 pm)29.79 in (1:54 pm)
Wind Speed4.8 mph13.8 mph (2:41 pm)
Wind Gust23 mph (2:47 pm)
Weather ElementAverage
Visibility7.5 mi
Wind DirectionESE (115.6 °)

Weather ElementTotal
Precipitation4.71 in
Cooling Degree Days16.5 (Base 65)
Growing Degree Days31.5 (Base 50)
Averaged from 39 records on August 15, 2013
WEATHER CONDITIONS BREAKOUT
WIND DIRECTION BREAKOUT
WEATHER BY HOUR - AUGUST 15, 2013
[ °C ]   °F
Local TimeTemperatureDewpointHumidityBarometerVisibilityWind DirectionWind SpeedGust SpeedPrecipitationEventsConditions
1:54 AM80.1 °F75.9 °F87 %29.83 in10.0 miCalmMostly Cloudy
2:01 AM80.6 °F75.2 °F84 %29.84 in10.0 miCalmMostly Cloudy
2:08 AM80.6 °F75.2 °F84 %29.84 in10.0 miCalmMostly Cloudy
2:54 AM78.1 °F75.0 °F90 %29.81 in10.0 miCalmPartly Cloudy
3:54 AM79.0 °F75.9 °F90 %29.81 in10.0 miCalmPartly Cloudy
4:54 AM77.0 °F75.0 °F94 %29.81 in10.0 miCalmPartly Cloudy
5:54 AM77.0 °F75.0 °F94 %29.82 in10.0 miCalmClear
6:54 AM80.1 °F75.9 °F87 %29.83 in10.0 miCalmPartly Cloudy
7:54 AM82.9 °F75.9 °F79 %29.85 in10.0 miCalmClear
8:54 AM84.0 °F75.0 °F74 %29.85 in10.0 miSE (140°)3.5 mphClear
9:54 AM86.0 °F73.9 °F67 %29.86 in10.0 miESE (120°)4.6 mphPartly Cloudy
10:54 AM86.0 °F75.0 °F70 %29.85 in10.0 miESE (110°)3.5 mphPartly Cloudy
11:54 AM86.0 °F75.0 °F70 %29.83 in10.0 miESE (110°)6.9 mphScattered Clouds
12:54 PM88.0 °F76.6 °F69 %29.81 in10.0 miSE (130°)5.8 mphScattered Clouds
1:54 PM84.0 °F75.9 °F76 %29.79 in10.0 miWest (270°)6.9 mphMostly Cloudy
2:21 PM82.4 °F75.2 °F79 %29.82 in10.0 miNNW (340°)5.8 mph0.00 inRainLight Rain
2:29 PM78.8 °F75.2 °F89 %29.82 in2.5 miNorth (360°)10.4 mph0.04 inRainHeavy Rain
2:32 PM78.8 °F75.2 °F89 %29.82 in2.0 miNW (310°)12.7 mph0.19 inRain-ThunderstormHeavy Thunderstorms and Rain
2:35 PM78.8 °F75.2 °F89 %29.82 in3.0 miWNW (290°)10.4 mph0.29 inRain-ThunderstormHeavy Thunderstorms and Rain
2:41 PM78.8 °F75.2 °F89 %29.83 in2.5 miSW (230°)13.8 mph17.3 mph0.51 inRain-ThunderstormHeavy Thunderstorms and Rain
2:47 PM77.0 °F75.2 °F94 %29.82 in1.0 miSouth (190°)11.5 mph23.0 mph0.75 inRain-ThunderstormHeavy Thunderstorms and Rain
2:54 PM77.0 °F73.9 °F90 %29.80 in2.0 miSouth (190°)4.6 mph17.3 mph0.87 inRain-ThunderstormHeavy Thunderstorms and Rain
3:04 PM75.2 °F73.4 °F94 %29.81 in4.0 miWNW (290°)5.8 mph0.17 inRain-ThunderstormThunderstorms and Rain
3:30 PM78.8 °F75.2 °F89 %29.81 in10.0 miENE (60°)6.9 mph0.19 inMostly Cloudy
3:54 PM80.1 °F75.9 °F87 %29.79 in10.0 miENE (60°)6.9 mph0.19 inScattered Clouds
4:54 PM82.0 °F77.0 °F85 %29.79 in10.0 miNNW (340°)3.5 mphClear
5:54 PM82.0 °F75.0 °F79 %29.80 in10.0 miCalmClear
6:54 PM82.0 °F75.9 °F82 %29.83 in10.0 miNE (50°)4.6 mphMostly Cloudy
7:54 PM79.0 °F75.0 °F88 %29.85 in10.0 miSSE (160°)3.5 mphOvercast
8:36 PM77.0 °F75.2 °F94 %29.90 in10.0 miSE (130°)10.4 mph20.7 mphOvercast
8:46 PM77.0 °F75.2 °F94 %29.91 in5.0 miSE (130°)10.4 mph0.00 inRainLight Rain
8:51 PM77.0 °F75.2 °F94 %29.91 in1.8 miSE (140°)8.1 mph0.06 inRainHeavy Rain
8:54 PM75.9 °F75.9 °F100 %29.89 in1.5 miSE (130°)6.9 mph16.1 mph0.12 inRainHeavy Rain
9:01 PM75.2 °F75.2 °F100 %29.91 in1.8 miSE (140°)5.8 mph16.1 mph0.09 inRain-ThunderstormThunderstorms and Rain
9:17 PM75.2 °F75.2 °F100 %29.91 in2.0 miVariable3.5 mph0.34 inRainRain
9:27 PM75.2 °F73.4 °F94 %29.91 in5.0 miNE (40°)5.8 mph0.38 inRainLight Rain
9:54 PM75.9 °F73.9 °F94 %29.88 in10.0 miNE (50°)3.5 mph0.39 inRainLight Rain
10:54 PM75.0 °F73.0 °F94 %29.86 in10.0 miCalm0.06 inRainLight Rain
11:54 PM75.0 °F73.9 °F96 %29.85 in7.0 miCalm0.07 inRainLight Rain
Hourly data recorded from PGUM, located miles away from Upi, Guam







STORIES FROM OUR PARTNERS